Volver al catálogo

FENGYUN 1C DEB

ActivoSSO
NORAD 29870·DEBRIS·🇨🇳 China

Lanzado May 10, 1999 desde Taiyuan Satellite Launch Center

Loading…

Próximos Pases (próximas 24 horas)

TLE

ActualizadoSource: Space-Track

Época: Sep 14, 2026, 09:21 UTC

1 29870U 99025FQ  26257.39010506  .00000061  00000-0  37611-4 0  9996
2 29870  98.4961 225.8453 0121157 101.2772  64.1540 14.29072397 25282

Sigue FENGYUN 1C DEB en tiempo real con AllMySat

Download on the App Store